User: anonymous
Location: Wawayanda State Park
(41.1833°N, 74.4333°W)
Time: 07:45:52
(UTC-04:00)
Language:

RESURS DK-1 - Orbit

View from above orbital plane
View from above orbital plane
View from above satellite
View from above satellite

Ground track
Ground track

The orbit data is extracted from the following two-line orbital elements,

1 29228U 06021A   14204.18607529  .00000218  00000-0  24727-4 0   630
2 29228 069.9377 272.7641 0005041 200.6056 252.5776 15.00730920448977
Epoch (UTC): 23 July 2014 04:27:56
Eccentricity: 0.0005041
inclination: 69.9377°
perigee height: 561 km
apogee height: 568 km
right ascension of ascending node: 272.7641°
argument of perigee: 200.6056°
revolutions per day: 15.00730920
mean anomaly at epoch: 252.5776°
orbit number at epoch: 44897

The dashed part of the orbit path shows where the satellite is in the earth's shadow,  

DLR